Location: Mary A Oil Field
(38.5606°N, 98.9545°W)
Time: 15:43:55
(UTC+00:00)

CZ-3 R/B - Pass Details

Date: 20 January 2020
Orbit: 346 x 10269 km, 28.4° (Epoch: 25 February)

Event Time Altitude Azimuth Distance (km) Brightness Sun altitude
Rises 08:08:00 0° 236° (WSW) 15,340 7.4 -64.6°
Reaches altitude 10° 08:26:24 10° 234° (SW) 13,634 7.0 -61.7°
Enters shadow 08:32:39 14° 233° (SW) 12,870 6.8 -60.7°
Exits shadow 09:19:08 53° 166° (SSE) 4,310 4.5 -52.4°
Drops below altitude 10° 09:31:02 10° 99° (E) 4,207 5.2 -50.2°
Sets 09:33:14 0° 93° (E) 4,673 5.6 -49.8°
